Weather History for Tracadie, NS

Change the Weather History Date:

Sunday, January 26, 2014

  Actual Average Record
Temperature  
Mean Temperature 28 °F -  
Max Temperature 45 °F - - ()
Min Temperature 10 °F - - ()
Degree Days  
Heating Degree Days 36    
Moisture  
Dew Point 26 °F    
Average Humidity 78    
Maximum Humidity 100    
Minimum Humidity 46    
Precipitation  
Precipitation 0.55 in - - ()
Sea Level Pressure  
Sea Level Pressure 29.43 in    
Wind  
Wind Speed 17 mph ()    
Max Wind Speed 25 mph    
Max Gust Speed 44 mph    
T = Trace of Precipitation, MM = Missing Value Source: Averaged Metar Reports

Daily Weather History Graph

Daily Weather History Graph

Search for Another Location

Airport:

Trip Planner

Search our weather history database for the weather conditions in past years. The results will help you decide how hot, cold, wet, or windy it might be!

Date:

Astronomy

Jan. 26, 2014 Rise Set
Actual Time 7:34 AM AST 5:04 PM AST
Civil Twilight 7:02 AM AST 5:36 PM AST
Nautical Twilight 6:26 AM AST 6:12 PM AST
Astronomical Twilight 5:51 AM AST 6:47 PM AST
Moon 3:07 AM AST (1/26) 12:48 PM AST (1/26)
Length of Visible Light 10h 34m
Length of Day
9h 29m
Waning Crescent, 24% of the Moon is Illuminated
Jan 26
Waning Crescent
Jan 30
New
Feb 6
First Quarter
Feb 14
Full
Feb 22
Last Quarter

Hourly Weather History & Observations

Time (AST) Temp. Windchill Dew Point Humidity Pressure Visibility Wind Dir Wind Speed Gust Speed Precip Events Conditions
12:00 AM 36.3 °F 26.4 °F 35.1 °F 95% 29.69 in - SE 17.3 mph 26.5 mph 0.02 in   Unknown
1:00 AM 37.8 °F 28.6 °F 36.3 °F 95% 29.58 in - SE 16.1 mph 29.9 mph 0.01 in   Unknown
2:00 AM 40 °F - 37 °F 87% 29.48 in - SE 23.0 mph - -  
2:00 AM 39.6 °F 29.2 °F 37.4 °F 92% 29.48 in - SE 23.0 mph 40.3 mph 0.02 in   Unknown
3:00 AM 41.2 °F 30.9 °F 39.6 °F 94% 29.38 in - SE 25.3 mph 43.7 mph 0.04 in   Unknown
4:00 AM 41.4 °F 31.6 °F 38.3 °F 89% 29.29 in - SE 23.0 mph 39.1 mph 0.06 in   Unknown
5:00 AM 43.0 °F 34.2 °F 41.9 °F 96% 29.23 in - SE 20.7 mph 36.8 mph 0.05 in   Unknown
6:00 AM 39.9 °F 31.1 °F 38.7 °F 95% 29.24 in - SSW 17.3 mph 24.2 mph 0.24 in   Unknown
7:00 AM 38.3 °F 31.4 °F 39.0 °F 100% 29.20 in - South 10.4 mph - 0.13 in   Unknown
8:00 AM 41 °F - 40 °F 95% 29.18 in - South 12.7 mph - -  
8:00 AM 41.2 °F 34.1 °F 38.3 °F 89% 29.18 in - South 12.7 mph 18.4 mph 0.03 in   Unknown
9:00 AM 40.8 °F 32.6 °F 39.4 °F 95% 29.14 in - South 16.1 mph 24.2 mph 0.01 in   Unknown
10:00 AM 37.6 °F 26.9 °F 35.1 °F 91% 29.17 in - SSW 21.9 mph 29.9 mph N/A   Unknown
11:00 AM 35.6 °F 24.2 °F 32.9 °F 90% 29.22 in - WSW 21.9 mph 33.4 mph N/A   Unknown
12:00 PM 34.7 °F 22.2 °F 25.7 °F 70% 29.26 in - SW 25.3 mph 39.1 mph N/A   Unknown
1:00 PM 31.5 °F 20.1 °F 26.4 °F 82% 29.31 in - West 17.3 mph 26.5 mph N/A   Unknown
2:00 PM 33 °F - 20 °F 46% 29.35 in - WSW 19.6 mph - -  
2:00 PM 31.5 °F 19.4 °F 20.1 °F 63% 29.35 in - WSW 19.6 mph 26.5 mph N/A   Unknown
3:00 PM 31.8 °F 21.0 °F 18.0 °F 57% 29.39 in - SW 16.1 mph 28.8 mph N/A   Unknown
4:00 PM 32.0 °F 19.2 °F 17.2 °F 55% 29.41 in - SW 23.0 mph 38.0 mph N/A   Unknown
5:00 PM 30.4 °F 18.7 °F 20.1 °F 66% 29.45 in - SW 17.3 mph 27.6 mph N/A   Unknown
6:00 PM 24.8 °F 11.1 °F 18.5 °F 77% 29.56 in - West 18.4 mph 28.8 mph N/A   Unknown
7:00 PM 23.2 °F 9.8 °F 10.9 °F 60% 29.61 in - WSW 16.1 mph 26.5 mph N/A   Unknown
8:00 PM 19 °F - 8 °F 48% 29.70 in - West 19.6 mph - -  
8:00 PM 19.0 °F 3.2 °F 7.7 °F 61% 29.70 in - West 19.6 mph 32.2 mph N/A   Unknown
9:00 PM 16.3 °F 2.1 °F 8.6 °F 72% 29.78 in - West 13.8 mph 20.7 mph N/A   Unknown
10:00 PM 12.6 °F -5.3 °F 1.2 °F 61% 29.85 in - WSW 19.6 mph 33.4 mph N/A   Unknown
11:00 PM 10.8 °F -5.0 °F -1.8 °F 57% 29.90 in - West 13.8 mph 24.2 mph N/A   Unknown